Preview of NWS' New Version of Forecast
This preview is not operational and should not be used for support decisions.

Regional Weather Roundup (RWR)

Issued by National Weather Service (NWS)

                            
000
ASPQ40 PGUM 231010
RWRPQ 
WEATHER ROUNDUP FOR THE MARIANAS AND MICRONESIA
NATIONAL WEATHER SERVICE TIYAN GU
800 PM CHST FRI AUG 23 2019

GUZ001>004-231100-
MARIANA ISLANDS-
  
CITY           SKY/WX    TMP DP  RH WIND       PRES   REMARKS
GUAM AIRPORT   LGT RAIN  81  77  89 E20       29.84R FOG              
ANDERSEN AFB   LGT RAIN  81  77  89 E8G21     29.85R                  
ROTA AIRPORT   LGT RAIN  79  75  89 NE12      29.81S                  
TINIAN AP      PTCLDY    84  77  79 E14       29.83R HX  94           
SAIPAN AP      CLEAR     84  77  79 NE13      29.84R HX  94           

$$

PMZ161-231100-
REPUBLIC OF PALAU-
  
CITY           SKY/WX    TMP DP  RH WIND       PRES   REMARKS
KOROR AP       CLOUDY    82  77  83 SW8       29.84R HX  91           
KOROR WSO      NOT AVBL                                               

$$

PMZ171>174-231100-
FEDERATED STATES OF MICRONESIA-
  
CITY           SKY/WX    TMP DP  RH WIND       PRES   REMARKS
YAP AIRPORT    CLOUDY    84  77  79 NW8       29.83R HX  94           
CHUUK AP       CLOUDY    81  77  89 VRB3      29.78R                  
POHNPEI AP     NOT AVBL                                               
POHNPEI WSO    CLOUDY    79  77  94 CALM      29.89R                  
KOSRAE AP      NOT AVBL                                               

$$

PMZ181-231100-
REPUBLIC OF THE MARSHALL ISLANDS-
  
CITY           SKY/WX    TMP DP  RH WIND       PRES   REMARKS
KWAJALEIN AP   PTCLDY    82  77  83 NE8       29.90R HX  91           
MAJURO AP      NOT AVBL                                               
MAJURO WSO     PTCLDY    82  75  78 E7        29.88R                  

$$